Clear Lake, IA

9:12 AM CDT on September 28, 2016 (GMT -0500)
Mason City Municipal

Weather History for KMCW - May, 2014

Change the Weather History Date:

Wednesday, May 28, 2014

  Actual Average Record
Temperature  
Mean Temperature 72 °F 62 °F  
Max Temperature 81 °F 74 °F 93 °F (2006)
Min Temperature 63 °F 51 °F 32 °F (1947)
Degree Days  
Heating Degree Days 0 4  
Month to date heating degree days 247 223  
Since 1 July heating degree days 8610 7623  
Cooling Degree Days 7 2  
Month to date cooling degree days 26 23  
Year to date cooling degree days 26 28  
Growing Degree Days 22 (Base 50)    
Moisture  
Dew Point 57 °F    
Average Humidity 59    
Maximum Humidity 100    
Minimum Humidity 18    
Precipitation  
Precipitation 0.00 in 0.16 in 2.18 in (1995)
Month to date precipitation 2.17 4.20  
Year to date precipitation 13.88 12.00  
Snow  
Snow 0.00 in 0.00 in 4.00 in (1947)
Month to date snowfall 0.0 0.1  
Since 1 July snowfall 58.0 41.3  
Snow Depth 0.00 in    
Sea Level Pressure  
Sea Level Pressure 30.01 in    
Wind  
Wind Speed 12 mph (NE)    
Max Wind Speed 21 mph    
Max Gust Speed 25 mph    
Visibility 9 miles    
Events      
T = Trace of Precipitation, MM = Missing Value Source: NWS Daily Summary

Daily Weather History Graph

Daily Weather History Graph

Search for Another Location

Airport or City:

Trip Planner

Search our weather history database for the weather conditions in past years. The results will help you decide how hot, cold, wet, or windy it might be!

Date:

Astronomy

May. 28, 2014 Rise Set
Actual Time 5:38 AM CDT 8:43 PM CDT
Civil Twilight 5:04 AM CDT 9:17 PM CDT
Nautical Twilight 4:20 AM CDT 10:01 PM CDT
Astronomical Twilight 3:28 AM CDT 10:53 PM CDT
Moon 5:47 AM CDT 8:40 PM CDT
Length of Visible Light 16h 12m
Length of Day
15h 04m
Waning Crescent, 0% of the Moon is Illuminated
May 28
Waning Crescent
May 28
New
Jun 5
First Quarter
Jun 12
Full
Jun 19
Last Quarter

Hourly Weather History & Observations

Time (CDT) Temp. Heat Index Dew Point Humidity Pressure Visibility Wind Dir Wind Speed Gust Speed Precip Events Conditions
12:40 AM 64.9 °F - 64.0 °F 97% 29.97 in 9.0 mi North 9.2 mph - N/A   Overcast
12:48 AM 66.2 °F - 64.4 °F 94% 29.97 in 9.0 mi North 8.1 mph - N/A   Overcast
12:53 AM 66.0 °F - 64.0 °F 93% 29.94 in 9.0 mi North 8.1 mph - N/A   Overcast
1:53 AM 64.9 °F - 64.0 °F 97% 29.94 in 7.0 mi NNW 9.2 mph - N/A   Overcast
2:53 AM 64.9 °F - 64.0 °F 97% 29.94 in 8.0 mi North 9.2 mph - N/A   Overcast
3:53 AM 64.9 °F - 63.0 °F 93% 29.94 in 8.0 mi NNW 9.2 mph - N/A   Overcast
4:53 AM 64.9 °F - 63.0 °F 93% 29.95 in 7.0 mi North 10.4 mph - N/A   Overcast
5:32 AM 64.0 °F - 63.0 °F 96% 29.98 in 6.0 mi North 8.1 mph - N/A   Overcast
5:53 AM 64.0 °F - 63.0 °F 96% 29.96 in 7.0 mi North 10.4 mph - N/A   Overcast
6:11 AM 64.0 °F - 63.0 °F 96% 29.99 in 7.0 mi North 9.2 mph - N/A   Overcast
6:35 AM 64.9 °F - 62.1 °F 90% 30.00 in 8.0 mi NNE 10.4 mph - N/A   Overcast
6:53 AM 64.9 °F - 63.0 °F 93% 29.98 in 8.0 mi North 10.4 mph - N/A   Overcast
7:01 AM 64.9 °F - 63.0 °F 93% 30.00 in 8.0 mi North 9.2 mph - N/A   Overcast
7:25 AM 64.9 °F - 63.0 °F 93% 30.01 in 7.0 mi North 10.4 mph - N/A   Overcast
8:03 AM 64.9 °F - 63.0 °F 93% 30.02 in 6.0 mi NNE 12.7 mph - N/A   Overcast
8:49 AM 66.2 °F - 64.4 °F 94% 30.03 in 8.0 mi NE 13.8 mph - N/A   Overcast
8:53 AM 66.9 °F - 64.0 °F 90% 30.01 in 8.0 mi NE 12.7 mph - N/A   Overcast
9:00 AM 66.9 °F - 64.0 °F 90% 30.03 in 9.0 mi NE 13.8 mph - N/A   Overcast
9:53 AM 70.0 °F - 64.0 °F 81% 30.02 in 10.0 mi NE 13.8 mph - N/A   Overcast
10:15 AM 71.1 °F - 64.0 °F 78% 30.04 in 10.0 mi NE 13.8 mph - N/A   Overcast
10:27 AM 71.1 °F - 64.0 °F 78% 30.05 in 10.0 mi NE 15.0 mph - N/A   Overcast
10:53 AM 72.0 °F - 63.0 °F 73% 30.02 in 10.0 mi NE 15.0 mph - N/A   Overcast
11:16 AM 71.1 °F - 64.0 °F 78% 30.06 in 10.0 mi ENE 18.4 mph - N/A   Overcast
11:53 AM 72.0 °F - 62.1 °F 71% 30.03 in 10.0 mi ENE 11.5 mph - N/A   Overcast
12:15 PM 75.0 °F - 60.1 °F 60% 30.06 in 10.0 mi ENE 15.0 mph - N/A   Scattered Clouds
1:53 PM 78.8 °F - 57.2 °F 47% 30.05 in 10.0 mi NE 15.0 mph - N/A   Partly Cloudy
2:53 PM 79.0 °F - 57.0 °F 47% 30.01 in 10.0 mi ENE 12.7 mph 21.9 mph N/A   Mostly Cloudy
3:53 PM 80.1 °F 80.4 °F 57.0 °F 45% 30.00 in 10.0 mi East 11.5 mph 18.4 mph N/A   Mostly Cloudy
5:53 PM 80.6 °F - 42.8 °F 26% 30.02 in 10.0 mi NE 17.3 mph - N/A   Clear
6:53 PM 78.1 °F - 35.1 °F 21% 30.00 in 10.0 mi NE 16.1 mph - N/A   Clear
7:53 PM 75.0 °F - 28.0 °F 18% 30.02 in 10.0 mi NE 16.1 mph - N/A   Clear
8:53 PM 70.0 °F - 32.0 °F 25% 30.04 in 10.0 mi ENE 10.4 mph - N/A   Clear
9:53 PM 66.0 °F - 35.1 °F 32% 30.05 in 10.0 mi East 6.9 mph - N/A   Clear
10:53 PM 68.0 °F - 39.0 °F 35% 30.06 in 10.0 mi East 9.2 mph - N/A   Clear
11:53 PM 63.0 °F - 42.1 °F 46% 30.05 in 10.0 mi East 8.1 mph - N/A   Clear